Погода в Нерюктяйинске 1-ом

Россия / Республика Саха (Якутия)     60°15′27″N   119°40′34″E
темп.,
°C
ветер,
м/с
пор.,
м/с
влажн.,
%
обл.,
%
осадки,
мм/ч
давл.,
гПа
погр.,
м
27 ноября, сб
сб2700:00−14ююв2592100 0.1 1005117
03:00−12ююз2588100 0.2 1006119
06:00−8з81674100 0.1 10111169
09:00−11з71676100 0.1 10171083
12:00−11з71577100 0.0 10201157
15:00−12з71478100 0.1 10231044
18:00−13з61381100 0.0 1027926
21:00−14з6128399 0.1 1030842
28 ноября, вс
вс2800:00−15з5128299 0.0 1031826
03:00−16з4108699 0.1 1032757
06:00−17з389097 0.0 1033445
09:00−17зюз389353 0.1 1032377
12:00−16зюз288882 0.0 1032464
15:00−15зюз258590 0.0 1030173
18:00−20юз2196100 0.0 103117
21:00−20юз1195100 0.0 102919
29 ноября, пн
пн2900:00−17ююз1190100 0.0 102734
03:00−20ююз119797 0.0 102614
06:00−22ююз1198100 0.0 102515
09:00−18ююв1192100 0.0 102432
12:00−17юз119079 0.0 102375
15:00−17юз119730 0.0 102310
18:00−21зюз1110080 0.0 102410
21:00−19ююз1199100 0.0 102318
30 ноября, вт
вт3000:00−18ю1197100 0.0 102229
03:00−18ююв1197100 0.0 102030
06:00−17ю1197100 0.1 101936
09:00−17ююз1198100 0.1 101818
12:00−14зюз1293100 0.2 1018105
15:00−13зюз1297100 0.3 101854
18:00−15з269663 0.1 1020152
21:00−17зюз229882 0.1 102046
1 декабря, ср
ср100:00−21зюз119991 0.0 101912
03:00−22ююв1199100 0.0 101711
06:00−20в1298100 0.0 101352
09:00−19в1297100 0.1 101197
12:00−17в1293100 0.1 1008144
15:00−16всв129498 0.3 1007153
18:00−17св1197100 0.1 100844
21:00−17с119893 0.3 101023